<?xml version="1.0"?>
<gpx xmlns="http://www.topografix.com/GPX/1/1" xmlns:xsi="http://www.w3.org/2001/XMLSchema-instance" version="1.1" creator="GPX RubyGem 1.0.0 -- http://dougfales.github.io/gpx/" xsi:schemaLocation="http://www.topografix.com/GPX/1/1 http://www.topografix.com/GPX/1/1/gpx.xsd">
  <metadata>
    <name/>
    <time>2026-05-08T05:53:11+00:00</time>
    <bound minlat="90.0" minlon="180.0" maxlat="-90.0" maxlon="-180.0"/>
  </metadata>
  <trk>
    <name/>
    <trkseg>
      <trkpt lat="47.172425" lon="8.896196">
        <time>1970-01-01T00:00:00+00:00</time>
        <ele>451.0</ele>
      </trkpt>
      <trkpt lat="47.172583" lon="8.89632">
        <time>1970-01-01T00:00:00+00:00</time>
        <ele>451.0</ele>
      </trkpt>
      <trkpt lat="47.172658" lon="8.896225">
        <time>1970-01-01T00:00:00+00:00</time>
        <ele>451.0</ele>
      </trkpt>
      <trkpt lat="47.172689" lon="8.896185">
        <time>1970-01-01T00:00:00+00:00</time>
        <ele>451.0</ele>
      </trkpt>
      <trkpt lat="47.172899" lon="8.895915">
        <time>1970-01-01T00:00:00+00:00</time>
        <ele>451.0</ele>
      </trkpt>
      <trkpt lat="47.173041" lon="8.895597">
        <time>1970-01-01T00:00:00+00:00</time>
        <ele>451.0</ele>
      </trkpt>
      <trkpt lat="47.172946" lon="8.895536">
        <time>1970-01-01T00:00:00+00:00</time>
        <ele>451.0</ele>
      </trkpt>
      <trkpt lat="47.172648" lon="8.895316">
        <time>1970-01-01T00:00:00+00:00</time>
        <ele>450.0</ele>
      </trkpt>
      <trkpt lat="47.171928" lon="8.894944">
        <time>1970-01-01T00:00:00+00:00</time>
        <ele>453.0</ele>
      </trkpt>
      <trkpt lat="47.171822" lon="8.894767">
        <time>1970-01-01T00:00:00+00:00</time>
        <ele>453.0</ele>
      </trkpt>
      <trkpt lat="47.171674" lon="8.893695">
        <time>1970-01-01T00:00:00+00:00</time>
        <ele>457.0</ele>
      </trkpt>
      <trkpt lat="47.171543" lon="8.893193">
        <time>1970-01-01T00:00:00+00:00</time>
        <ele>461.0</ele>
      </trkpt>
      <trkpt lat="47.171437" lon="8.893122">
        <time>1970-01-01T00:00:00+00:00</time>
        <ele>461.0</ele>
      </trkpt>
      <trkpt lat="47.171133" lon="8.892992">
        <time>1970-01-01T00:00:00+00:00</time>
        <ele>467.0</ele>
      </trkpt>
      <trkpt lat="47.171048" lon="8.892921">
        <time>1970-01-01T00:00:00+00:00</time>
        <ele>471.0</ele>
      </trkpt>
      <trkpt lat="47.171003" lon="8.892883">
        <time>1970-01-01T00:00:00+00:00</time>
        <ele>473.0</ele>
      </trkpt>
      <trkpt lat="47.170933" lon="8.89272">
        <time>1970-01-01T00:00:00+00:00</time>
        <ele>475.0</ele>
      </trkpt>
      <trkpt lat="47.170912" lon="8.892632">
        <time>1970-01-01T00:00:00+00:00</time>
        <ele>476.0</ele>
      </trkpt>
      <trkpt lat="47.170829" lon="8.8923">
        <time>1970-01-01T00:00:00+00:00</time>
        <ele>478.0</ele>
      </trkpt>
      <trkpt lat="47.170613" lon="8.891664">
        <time>1970-01-01T00:00:00+00:00</time>
        <ele>489.0</ele>
      </trkpt>
      <trkpt lat="47.170639" lon="8.891403">
        <time>1970-01-01T00:00:00+00:00</time>
        <ele>488.0</ele>
      </trkpt>
      <trkpt lat="47.170667" lon="8.891257">
        <time>1970-01-01T00:00:00+00:00</time>
        <ele>487.0</ele>
      </trkpt>
      <trkpt lat="47.17061" lon="8.891096">
        <time>1970-01-01T00:00:00+00:00</time>
        <ele>491.0</ele>
      </trkpt>
      <trkpt lat="47.17053" lon="8.891045">
        <time>1970-01-01T00:00:00+00:00</time>
        <ele>495.0</ele>
      </trkpt>
      <trkpt lat="47.170445" lon="8.891057">
        <time>1970-01-01T00:00:00+00:00</time>
        <ele>499.0</ele>
      </trkpt>
      <trkpt lat="47.170338" lon="8.891181">
        <time>1970-01-01T00:00:00+00:00</time>
        <ele>504.0</ele>
      </trkpt>
      <trkpt lat="47.170346" lon="8.8911">
        <time>1970-01-01T00:00:00+00:00</time>
        <ele>503.0</ele>
      </trkpt>
      <trkpt lat="47.17031" lon="8.890906">
        <time>1970-01-01T00:00:00+00:00</time>
        <ele>503.0</ele>
      </trkpt>
      <trkpt lat="47.170148" lon="8.890286">
        <time>1970-01-01T00:00:00+00:00</time>
        <ele>510.0</ele>
      </trkpt>
      <trkpt lat="47.170199" lon="8.89022">
        <time>1970-01-01T00:00:00+00:00</time>
        <ele>508.0</ele>
      </trkpt>
      <trkpt lat="47.170165" lon="8.890134">
        <time>1970-01-01T00:00:00+00:00</time>
        <ele>510.0</ele>
      </trkpt>
      <trkpt lat="47.170008" lon="8.889149">
        <time>1970-01-01T00:00:00+00:00</time>
        <ele>527.0</ele>
      </trkpt>
      <trkpt lat="47.17004" lon="8.888816">
        <time>1970-01-01T00:00:00+00:00</time>
        <ele>529.0</ele>
      </trkpt>
      <trkpt lat="47.169847" lon="8.888683">
        <time>1970-01-01T00:00:00+00:00</time>
        <ele>540.0</ele>
      </trkpt>
      <trkpt lat="47.169664" lon="8.889459">
        <time>1970-01-01T00:00:00+00:00</time>
        <ele>540.0</ele>
      </trkpt>
      <trkpt lat="47.16963" lon="8.889377">
        <time>1970-01-01T00:00:00+00:00</time>
        <ele>543.0</ele>
      </trkpt>
      <trkpt lat="47.169379" lon="8.889172">
        <time>1970-01-01T00:00:00+00:00</time>
        <ele>557.0</ele>
      </trkpt>
      <trkpt lat="47.169246" lon="8.888879">
        <time>1970-01-01T00:00:00+00:00</time>
        <ele>563.0</ele>
      </trkpt>
      <trkpt lat="47.169183" lon="8.888814">
        <time>1970-01-01T00:00:00+00:00</time>
        <ele>565.0</ele>
      </trkpt>
      <trkpt lat="47.16908" lon="8.888881">
        <time>1970-01-01T00:00:00+00:00</time>
        <ele>564.0</ele>
      </trkpt>
      <trkpt lat="47.16898" lon="8.888792">
        <time>1970-01-01T00:00:00+00:00</time>
        <ele>566.0</ele>
      </trkpt>
      <trkpt lat="47.168631" lon="8.888787">
        <time>1970-01-01T00:00:00+00:00</time>
        <ele>572.0</ele>
      </trkpt>
      <trkpt lat="47.168575" lon="8.888645">
        <time>1970-01-01T00:00:00+00:00</time>
        <ele>574.0</ele>
      </trkpt>
      <trkpt lat="47.168541" lon="8.888612">
        <time>1970-01-01T00:00:00+00:00</time>
        <ele>575.0</ele>
      </trkpt>
      <trkpt lat="47.168416" lon="8.888219">
        <time>1970-01-01T00:00:00+00:00</time>
        <ele>578.0</ele>
      </trkpt>
      <trkpt lat="47.168377" lon="8.888024">
        <time>1970-01-01T00:00:00+00:00</time>
        <ele>579.0</ele>
      </trkpt>
      <trkpt lat="47.168408" lon="8.887902">
        <time>1970-01-01T00:00:00+00:00</time>
        <ele>580.0</ele>
      </trkpt>
      <trkpt lat="47.168237" lon="8.887584">
        <time>1970-01-01T00:00:00+00:00</time>
        <ele>585.0</ele>
      </trkpt>
      <trkpt lat="47.168071" lon="8.887333">
        <time>1970-01-01T00:00:00+00:00</time>
        <ele>589.0</ele>
      </trkpt>
      <trkpt lat="47.167915" lon="8.88721">
        <time>1970-01-01T00:00:00+00:00</time>
        <ele>594.0</ele>
      </trkpt>
      <trkpt lat="47.167668" lon="8.887228">
        <time>1970-01-01T00:00:00+00:00</time>
        <ele>599.0</ele>
      </trkpt>
      <trkpt lat="47.167488" lon="8.887043">
        <time>1970-01-01T00:00:00+00:00</time>
        <ele>605.0</ele>
      </trkpt>
      <trkpt lat="47.167321" lon="8.886772">
        <time>1970-01-01T00:00:00+00:00</time>
        <ele>606.0</ele>
      </trkpt>
      <trkpt lat="47.167126" lon="8.886436">
        <time>1970-01-01T00:00:00+00:00</time>
        <ele>610.0</ele>
      </trkpt>
      <trkpt lat="47.166949" lon="8.886326">
        <time>1970-01-01T00:00:00+00:00</time>
        <ele>613.0</ele>
      </trkpt>
      <trkpt lat="47.166814" lon="8.886297">
        <time>1970-01-01T00:00:00+00:00</time>
        <ele>617.0</ele>
      </trkpt>
      <trkpt lat="47.166265" lon="8.885958">
        <time>1970-01-01T00:00:00+00:00</time>
        <ele>629.0</ele>
      </trkpt>
      <trkpt lat="47.166094" lon="8.885889">
        <time>1970-01-01T00:00:00+00:00</time>
        <ele>634.0</ele>
      </trkpt>
      <trkpt lat="47.166017" lon="8.885798">
        <time>1970-01-01T00:00:00+00:00</time>
        <ele>637.0</ele>
      </trkpt>
      <trkpt lat="47.16597" lon="8.885682">
        <time>1970-01-01T00:00:00+00:00</time>
        <ele>639.0</ele>
      </trkpt>
      <trkpt lat="47.165981" lon="8.885584">
        <time>1970-01-01T00:00:00+00:00</time>
        <ele>640.0</ele>
      </trkpt>
      <trkpt lat="47.165971" lon="8.88552">
        <time>1970-01-01T00:00:00+00:00</time>
        <ele>641.0</ele>
      </trkpt>
      <trkpt lat="47.165933" lon="8.885469">
        <time>1970-01-01T00:00:00+00:00</time>
        <ele>643.0</ele>
      </trkpt>
      <trkpt lat="47.165923" lon="8.885417">
        <time>1970-01-01T00:00:00+00:00</time>
        <ele>644.0</ele>
      </trkpt>
      <trkpt lat="47.16591" lon="8.885148">
        <time>1970-01-01T00:00:00+00:00</time>
        <ele>647.0</ele>
      </trkpt>
      <trkpt lat="47.16582" lon="8.885058">
        <time>1970-01-01T00:00:00+00:00</time>
        <ele>650.0</ele>
      </trkpt>
      <trkpt lat="47.165736" lon="8.884942">
        <time>1970-01-01T00:00:00+00:00</time>
        <ele>654.0</ele>
      </trkpt>
      <trkpt lat="47.165728" lon="8.884807">
        <time>1970-01-01T00:00:00+00:00</time>
        <ele>656.0</ele>
      </trkpt>
      <trkpt lat="47.165685" lon="8.884622">
        <time>1970-01-01T00:00:00+00:00</time>
        <ele>658.0</ele>
      </trkpt>
      <trkpt lat="47.165656" lon="8.884566">
        <time>1970-01-01T00:00:00+00:00</time>
        <ele>658.0</ele>
      </trkpt>
      <trkpt lat="47.165581" lon="8.884528">
        <time>1970-01-01T00:00:00+00:00</time>
        <ele>659.0</ele>
      </trkpt>
      <trkpt lat="47.165545" lon="8.884528">
        <time>1970-01-01T00:00:00+00:00</time>
        <ele>659.0</ele>
      </trkpt>
      <trkpt lat="47.165464" lon="8.884573">
        <time>1970-01-01T00:00:00+00:00</time>
        <ele>660.0</ele>
      </trkpt>
      <trkpt lat="47.165286" lon="8.884551">
        <time>1970-01-01T00:00:00+00:00</time>
        <ele>660.0</ele>
      </trkpt>
      <trkpt lat="47.165073" lon="8.884472">
        <time>1970-01-01T00:00:00+00:00</time>
        <ele>661.0</ele>
      </trkpt>
      <trkpt lat="47.165006" lon="8.884406">
        <time>1970-01-01T00:00:00+00:00</time>
        <ele>662.0</ele>
      </trkpt>
      <trkpt lat="47.164969" lon="8.884452">
        <time>1970-01-01T00:00:00+00:00</time>
        <ele>662.0</ele>
      </trkpt>
      <trkpt lat="47.164962" lon="8.884549">
        <time>1970-01-01T00:00:00+00:00</time>
        <ele>660.0</ele>
      </trkpt>
      <trkpt lat="47.164941" lon="8.884585">
        <time>1970-01-01T00:00:00+00:00</time>
        <ele>659.0</ele>
      </trkpt>
      <trkpt lat="47.164905" lon="8.8846">
        <time>1970-01-01T00:00:00+00:00</time>
        <ele>660.0</ele>
      </trkpt>
      <trkpt lat="47.164834" lon="8.884579">
        <time>1970-01-01T00:00:00+00:00</time>
        <ele>661.0</ele>
      </trkpt>
      <trkpt lat="47.164784" lon="8.884528">
        <time>1970-01-01T00:00:00+00:00</time>
        <ele>663.0</ele>
      </trkpt>
      <trkpt lat="47.164762" lon="8.884482">
        <time>1970-01-01T00:00:00+00:00</time>
        <ele>664.0</ele>
      </trkpt>
      <trkpt lat="47.164768" lon="8.884422">
        <time>1970-01-01T00:00:00+00:00</time>
        <ele>665.0</ele>
      </trkpt>
      <trkpt lat="47.164645" lon="8.88423">
        <time>1970-01-01T00:00:00+00:00</time>
        <ele>670.0</ele>
      </trkpt>
      <trkpt lat="47.164217" lon="8.884656">
        <time>1970-01-01T00:00:00+00:00</time>
        <ele>679.0</ele>
      </trkpt>
      <trkpt lat="47.163509" lon="8.884937">
        <time>1970-01-01T00:00:00+00:00</time>
        <ele>678.0</ele>
      </trkpt>
      <trkpt lat="47.163287" lon="8.885028">
        <time>1970-01-01T00:00:00+00:00</time>
        <ele>681.0</ele>
      </trkpt>
      <trkpt lat="47.161645" lon="8.886472">
        <time>1970-01-01T00:00:00+00:00</time>
        <ele>717.0</ele>
      </trkpt>
      <trkpt lat="47.160929" lon="8.886868">
        <time>1970-01-01T00:00:00+00:00</time>
        <ele>719.0</ele>
      </trkpt>
      <trkpt lat="47.160847" lon="8.886934">
        <time>1970-01-01T00:00:00+00:00</time>
        <ele>720.0</ele>
      </trkpt>
      <trkpt lat="47.160438" lon="8.887263">
        <time>1970-01-01T00:00:00+00:00</time>
        <ele>724.0</ele>
      </trkpt>
      <trkpt lat="47.160372" lon="8.887233">
        <time>1970-01-01T00:00:00+00:00</time>
        <ele>725.0</ele>
      </trkpt>
      <trkpt lat="47.159931" lon="8.887316">
        <time>1970-01-01T00:00:00+00:00</time>
        <ele>730.0</ele>
      </trkpt>
      <trkpt lat="47.159822" lon="8.887303">
        <time>1970-01-01T00:00:00+00:00</time>
        <ele>730.0</ele>
      </trkpt>
      <trkpt lat="47.159705" lon="8.887229">
        <time>1970-01-01T00:00:00+00:00</time>
        <ele>730.0</ele>
      </trkpt>
      <trkpt lat="47.159211" lon="8.886498">
        <time>1970-01-01T00:00:00+00:00</time>
        <ele>750.0</ele>
      </trkpt>
      <trkpt lat="47.159017" lon="8.886414">
        <time>1970-01-01T00:00:00+00:00</time>
        <ele>758.0</ele>
      </trkpt>
      <trkpt lat="47.158826" lon="8.886458">
        <time>1970-01-01T00:00:00+00:00</time>
        <ele>756.0</ele>
      </trkpt>
      <trkpt lat="47.1588" lon="8.886317">
        <time>1970-01-01T00:00:00+00:00</time>
        <ele>758.0</ele>
      </trkpt>
      <trkpt lat="47.158879" lon="8.886067">
        <time>1970-01-01T00:00:00+00:00</time>
        <ele>766.0</ele>
      </trkpt>
      <trkpt lat="47.158889" lon="8.885973">
        <time>1970-01-01T00:00:00+00:00</time>
        <ele>769.0</ele>
      </trkpt>
      <trkpt lat="47.158856" lon="8.885905">
        <time>1970-01-01T00:00:00+00:00</time>
        <ele>771.0</ele>
      </trkpt>
      <trkpt lat="47.15878" lon="8.885874">
        <time>1970-01-01T00:00:00+00:00</time>
        <ele>771.0</ele>
      </trkpt>
      <trkpt lat="47.158587" lon="8.885883">
        <time>1970-01-01T00:00:00+00:00</time>
        <ele>771.0</ele>
      </trkpt>
      <trkpt lat="47.158525" lon="8.885832">
        <time>1970-01-01T00:00:00+00:00</time>
        <ele>773.0</ele>
      </trkpt>
      <trkpt lat="47.158486" lon="8.885693">
        <time>1970-01-01T00:00:00+00:00</time>
        <ele>778.0</ele>
      </trkpt>
      <trkpt lat="47.15849" lon="8.885489">
        <time>1970-01-01T00:00:00+00:00</time>
        <ele>783.0</ele>
      </trkpt>
      <trkpt lat="47.158599" lon="8.885279">
        <time>1970-01-01T00:00:00+00:00</time>
        <ele>789.0</ele>
      </trkpt>
      <trkpt lat="47.158647" lon="8.884985">
        <time>1970-01-01T00:00:00+00:00</time>
        <ele>798.0</ele>
      </trkpt>
      <trkpt lat="47.158799" lon="8.884782">
        <time>1970-01-01T00:00:00+00:00</time>
        <ele>801.0</ele>
      </trkpt>
      <trkpt lat="47.158954" lon="8.884803">
        <time>1970-01-01T00:00:00+00:00</time>
        <ele>799.0</ele>
      </trkpt>
      <trkpt lat="47.15909" lon="8.884926">
        <time>1970-01-01T00:00:00+00:00</time>
        <ele>797.0</ele>
      </trkpt>
      <trkpt lat="47.159154" lon="8.885075">
        <time>1970-01-01T00:00:00+00:00</time>
        <ele>793.0</ele>
      </trkpt>
      <trkpt lat="47.15945" lon="8.885216">
        <time>1970-01-01T00:00:00+00:00</time>
        <ele>786.0</ele>
      </trkpt>
      <trkpt lat="47.159548" lon="8.885226">
        <time>1970-01-01T00:00:00+00:00</time>
        <ele>786.0</ele>
      </trkpt>
      <trkpt lat="47.159705" lon="8.885155">
        <time>1970-01-01T00:00:00+00:00</time>
        <ele>791.0</ele>
      </trkpt>
      <trkpt lat="47.159814" lon="8.885035">
        <time>1970-01-01T00:00:00+00:00</time>
        <ele>798.0</ele>
      </trkpt>
      <trkpt lat="47.160064" lon="8.884553">
        <time>1970-01-01T00:00:00+00:00</time>
        <ele>816.0</ele>
      </trkpt>
      <trkpt lat="47.160185" lon="8.884358">
        <time>1970-01-01T00:00:00+00:00</time>
        <ele>822.0</ele>
      </trkpt>
      <trkpt lat="47.16024" lon="8.884202">
        <time>1970-01-01T00:00:00+00:00</time>
        <ele>829.0</ele>
      </trkpt>
      <trkpt lat="47.160306" lon="8.883739">
        <time>1970-01-01T00:00:00+00:00</time>
        <ele>838.0</ele>
      </trkpt>
      <trkpt lat="47.160326" lon="8.883396">
        <time>1970-01-01T00:00:00+00:00</time>
        <ele>846.0</ele>
      </trkpt>
      <trkpt lat="47.160429" lon="8.883065">
        <time>1970-01-01T00:00:00+00:00</time>
        <ele>849.0</ele>
      </trkpt>
      <trkpt lat="47.160469" lon="8.882826">
        <time>1970-01-01T00:00:00+00:00</time>
        <ele>853.0</ele>
      </trkpt>
      <trkpt lat="47.160644" lon="8.88248">
        <time>1970-01-01T00:00:00+00:00</time>
        <ele>849.0</ele>
      </trkpt>
      <trkpt lat="47.160705" lon="8.882259">
        <time>1970-01-01T00:00:00+00:00</time>
        <ele>850.0</ele>
      </trkpt>
      <trkpt lat="47.16071" lon="8.881808">
        <time>1970-01-01T00:00:00+00:00</time>
        <ele>859.0</ele>
      </trkpt>
      <trkpt lat="47.160752" lon="8.881391">
        <time>1970-01-01T00:00:00+00:00</time>
        <ele>867.0</ele>
      </trkpt>
      <trkpt lat="47.160737" lon="8.880873">
        <time>1970-01-01T00:00:00+00:00</time>
        <ele>870.0</ele>
      </trkpt>
      <trkpt lat="47.160697" lon="8.8804">
        <time>1970-01-01T00:00:00+00:00</time>
        <ele>868.0</ele>
      </trkpt>
      <trkpt lat="47.160722" lon="8.880249">
        <time>1970-01-01T00:00:00+00:00</time>
        <ele>868.0</ele>
      </trkpt>
      <trkpt lat="47.160704" lon="8.880081">
        <time>1970-01-01T00:00:00+00:00</time>
        <ele>866.0</ele>
      </trkpt>
      <trkpt lat="47.160656" lon="8.880006">
        <time>1970-01-01T00:00:00+00:00</time>
        <ele>865.0</ele>
      </trkpt>
      <trkpt lat="47.160578" lon="8.879959">
        <time>1970-01-01T00:00:00+00:00</time>
        <ele>864.0</ele>
      </trkpt>
      <trkpt lat="47.160418" lon="8.879725">
        <time>1970-01-01T00:00:00+00:00</time>
        <ele>864.0</ele>
      </trkpt>
      <trkpt lat="47.160316" lon="8.879531">
        <time>1970-01-01T00:00:00+00:00</time>
        <ele>867.0</ele>
      </trkpt>
      <trkpt lat="47.160194" lon="8.879376">
        <time>1970-01-01T00:00:00+00:00</time>
        <ele>872.0</ele>
      </trkpt>
      <trkpt lat="47.160096" lon="8.879528">
        <time>1970-01-01T00:00:00+00:00</time>
        <ele>874.0</ele>
      </trkpt>
      <trkpt lat="47.159761" lon="8.879714">
        <time>1970-01-01T00:00:00+00:00</time>
        <ele>881.0</ele>
      </trkpt>
      <trkpt lat="47.159744" lon="8.879411">
        <time>1970-01-01T00:00:00+00:00</time>
        <ele>886.0</ele>
      </trkpt>
      <trkpt lat="47.159661" lon="8.879291">
        <time>1970-01-01T00:00:00+00:00</time>
        <ele>892.0</ele>
      </trkpt>
      <trkpt lat="47.159478" lon="8.879482">
        <time>1970-01-01T00:00:00+00:00</time>
        <ele>895.0</ele>
      </trkpt>
      <trkpt lat="47.159363" lon="8.879528">
        <time>1970-01-01T00:00:00+00:00</time>
        <ele>898.0</ele>
      </trkpt>
      <trkpt lat="47.15932" lon="8.879512">
        <time>1970-01-01T00:00:00+00:00</time>
        <ele>900.0</ele>
      </trkpt>
      <trkpt lat="47.159319" lon="8.879398">
        <time>1970-01-01T00:00:00+00:00</time>
        <ele>902.0</ele>
      </trkpt>
      <trkpt lat="47.159396" lon="8.879068">
        <time>1970-01-01T00:00:00+00:00</time>
        <ele>908.0</ele>
      </trkpt>
      <trkpt lat="47.159394" lon="8.879001">
        <time>1970-01-01T00:00:00+00:00</time>
        <ele>909.0</ele>
      </trkpt>
      <trkpt lat="47.159375" lon="8.878972">
        <time>1970-01-01T00:00:00+00:00</time>
        <ele>910.0</ele>
      </trkpt>
      <trkpt lat="47.159332" lon="8.878968">
        <time>1970-01-01T00:00:00+00:00</time>
        <ele>911.0</ele>
      </trkpt>
      <trkpt lat="47.159234" lon="8.879043">
        <time>1970-01-01T00:00:00+00:00</time>
        <ele>910.0</ele>
      </trkpt>
      <trkpt lat="47.159146" lon="8.87908">
        <time>1970-01-01T00:00:00+00:00</time>
        <ele>911.0</ele>
      </trkpt>
      <trkpt lat="47.159113" lon="8.879068">
        <time>1970-01-01T00:00:00+00:00</time>
        <ele>911.0</ele>
      </trkpt>
      <trkpt lat="47.159096" lon="8.879018">
        <time>1970-01-01T00:00:00+00:00</time>
        <ele>912.0</ele>
      </trkpt>
      <trkpt lat="47.159094" lon="8.878944">
        <time>1970-01-01T00:00:00+00:00</time>
        <ele>913.0</ele>
      </trkpt>
      <trkpt lat="47.159109" lon="8.878762">
        <time>1970-01-01T00:00:00+00:00</time>
        <ele>915.0</ele>
      </trkpt>
      <trkpt lat="47.159183" lon="8.878674">
        <time>1970-01-01T00:00:00+00:00</time>
        <ele>916.0</ele>
      </trkpt>
      <trkpt lat="47.159278" lon="8.878435">
        <time>1970-01-01T00:00:00+00:00</time>
        <ele>919.0</ele>
      </trkpt>
      <trkpt lat="47.159319" lon="8.878115">
        <time>1970-01-01T00:00:00+00:00</time>
        <ele>924.0</ele>
      </trkpt>
      <trkpt lat="47.159309" lon="8.877792">
        <time>1970-01-01T00:00:00+00:00</time>
        <ele>926.0</ele>
      </trkpt>
      <trkpt lat="47.159284" lon="8.87758">
        <time>1970-01-01T00:00:00+00:00</time>
        <ele>926.0</ele>
      </trkpt>
      <trkpt lat="47.159261" lon="8.877373">
        <time>1970-01-01T00:00:00+00:00</time>
        <ele>927.0</ele>
      </trkpt>
      <trkpt lat="47.159256" lon="8.876636">
        <time>1970-01-01T00:00:00+00:00</time>
        <ele>933.0</ele>
      </trkpt>
      <trkpt lat="47.159229" lon="8.876403">
        <time>1970-01-01T00:00:00+00:00</time>
        <ele>935.0</ele>
      </trkpt>
      <trkpt lat="47.159021" lon="8.875459">
        <time>1970-01-01T00:00:00+00:00</time>
        <ele>943.0</ele>
      </trkpt>
      <trkpt lat="47.158953" lon="8.875242">
        <time>1970-01-01T00:00:00+00:00</time>
        <ele>945.0</ele>
      </trkpt>
      <trkpt lat="47.15878" lon="8.874915">
        <time>1970-01-01T00:00:00+00:00</time>
        <ele>948.0</ele>
      </trkpt>
      <trkpt lat="47.158627" lon="8.874363">
        <time>1970-01-01T00:00:00+00:00</time>
        <ele>957.0</ele>
      </trkpt>
      <trkpt lat="47.158584" lon="8.874139">
        <time>1970-01-01T00:00:00+00:00</time>
        <ele>960.0</ele>
      </trkpt>
      <trkpt lat="47.158577" lon="8.873909">
        <time>1970-01-01T00:00:00+00:00</time>
        <ele>961.0</ele>
      </trkpt>
      <trkpt lat="47.158589" lon="8.873638">
        <time>1970-01-01T00:00:00+00:00</time>
        <ele>959.0</ele>
      </trkpt>
      <trkpt lat="47.158561" lon="8.873509">
        <time>1970-01-01T00:00:00+00:00</time>
        <ele>958.0</ele>
      </trkpt>
      <trkpt lat="47.158482" lon="8.873437">
        <time>1970-01-01T00:00:00+00:00</time>
        <ele>960.0</ele>
      </trkpt>
      <trkpt lat="47.1584" lon="8.873462">
        <time>1970-01-01T00:00:00+00:00</time>
        <ele>963.0</ele>
      </trkpt>
      <trkpt lat="47.158331" lon="8.873579">
        <time>1970-01-01T00:00:00+00:00</time>
        <ele>965.0</ele>
      </trkpt>
      <trkpt lat="47.15831" lon="8.873804">
        <time>1970-01-01T00:00:00+00:00</time>
        <ele>966.0</ele>
      </trkpt>
      <trkpt lat="47.158181" lon="8.874139">
        <time>1970-01-01T00:00:00+00:00</time>
        <ele>968.0</ele>
      </trkpt>
      <trkpt lat="47.158183" lon="8.874338">
        <time>1970-01-01T00:00:00+00:00</time>
        <ele>968.0</ele>
      </trkpt>
      <trkpt lat="47.158233" lon="8.874588">
        <time>1970-01-01T00:00:00+00:00</time>
        <ele>967.0</ele>
      </trkpt>
      <trkpt lat="47.158195" lon="8.874777">
        <time>1970-01-01T00:00:00+00:00</time>
        <ele>967.0</ele>
      </trkpt>
      <trkpt lat="47.158098" lon="8.875023">
        <time>1970-01-01T00:00:00+00:00</time>
        <ele>970.0</ele>
      </trkpt>
      <trkpt lat="47.157988" lon="8.875208">
        <time>1970-01-01T00:00:00+00:00</time>
        <ele>972.0</ele>
      </trkpt>
      <trkpt lat="47.157829" lon="8.8753">
        <time>1970-01-01T00:00:00+00:00</time>
        <ele>974.0</ele>
      </trkpt>
      <trkpt lat="47.157564" lon="8.87532">
        <time>1970-01-01T00:00:00+00:00</time>
        <ele>978.0</ele>
      </trkpt>
      <trkpt lat="47.157381" lon="8.875426">
        <time>1970-01-01T00:00:00+00:00</time>
        <ele>981.0</ele>
      </trkpt>
      <trkpt lat="47.157088" lon="8.875595">
        <time>1970-01-01T00:00:00+00:00</time>
        <ele>985.0</ele>
      </trkpt>
      <trkpt lat="47.156945" lon="8.875784">
        <time>1970-01-01T00:00:00+00:00</time>
        <ele>990.0</ele>
      </trkpt>
      <trkpt lat="47.156801" lon="8.87618">
        <time>1970-01-01T00:00:00+00:00</time>
        <ele>991.0</ele>
      </trkpt>
      <trkpt lat="47.156678" lon="8.876426">
        <time>1970-01-01T00:00:00+00:00</time>
        <ele>990.0</ele>
      </trkpt>
      <trkpt lat="47.156525" lon="8.876625">
        <time>1970-01-01T00:00:00+00:00</time>
        <ele>988.0</ele>
      </trkpt>
      <trkpt lat="47.156391" lon="8.876695">
        <time>1970-01-01T00:00:00+00:00</time>
        <ele>993.0</ele>
      </trkpt>
      <trkpt lat="47.156177" lon="8.876756">
        <time>1970-01-01T00:00:00+00:00</time>
        <ele>1002.0</ele>
      </trkpt>
      <trkpt lat="47.155894" lon="8.877059">
        <time>1970-01-01T00:00:00+00:00</time>
        <ele>1009.0</ele>
      </trkpt>
      <trkpt lat="47.155767" lon="8.877142">
        <time>1970-01-01T00:00:00+00:00</time>
        <ele>1012.0</ele>
      </trkpt>
      <trkpt lat="47.155667" lon="8.877146">
        <time>1970-01-01T00:00:00+00:00</time>
        <ele>1015.0</ele>
      </trkpt>
      <trkpt lat="47.155425" lon="8.877178">
        <time>1970-01-01T00:00:00+00:00</time>
        <ele>1021.0</ele>
      </trkpt>
      <trkpt lat="47.155299" lon="8.877246">
        <time>1970-01-01T00:00:00+00:00</time>
        <ele>1021.0</ele>
      </trkpt>
      <trkpt lat="47.155132" lon="8.877415">
        <time>1970-01-01T00:00:00+00:00</time>
        <ele>1017.0</ele>
      </trkpt>
      <trkpt lat="47.155042" lon="8.877475">
        <time>1970-01-01T00:00:00+00:00</time>
        <ele>1016.0</ele>
      </trkpt>
      <trkpt lat="47.154944" lon="8.877444">
        <time>1970-01-01T00:00:00+00:00</time>
        <ele>1017.0</ele>
      </trkpt>
      <trkpt lat="47.154294" lon="8.877049">
        <time>1970-01-01T00:00:00+00:00</time>
        <ele>1028.0</ele>
      </trkpt>
      <trkpt lat="47.15407" lon="8.87703">
        <time>1970-01-01T00:00:00+00:00</time>
        <ele>1033.0</ele>
      </trkpt>
      <trkpt lat="47.153842" lon="8.8771">
        <time>1970-01-01T00:00:00+00:00</time>
        <ele>1037.0</ele>
      </trkpt>
      <trkpt lat="47.153762" lon="8.877107">
        <time>1970-01-01T00:00:00+00:00</time>
        <ele>1039.0</ele>
      </trkpt>
      <trkpt lat="47.153578" lon="8.876975">
        <time>1970-01-01T00:00:00+00:00</time>
        <ele>1043.0</ele>
      </trkpt>
      <trkpt lat="47.153457" lon="8.876803">
        <time>1970-01-01T00:00:00+00:00</time>
        <ele>1044.0</ele>
      </trkpt>
      <trkpt lat="47.153343" lon="8.876522">
        <time>1970-01-01T00:00:00+00:00</time>
        <ele>1047.0</ele>
      </trkpt>
      <trkpt lat="47.153193" lon="8.876388">
        <time>1970-01-01T00:00:00+00:00</time>
        <ele>1048.0</ele>
      </trkpt>
      <trkpt lat="47.153087" lon="8.876255">
        <time>1970-01-01T00:00:00+00:00</time>
        <ele>1050.0</ele>
      </trkpt>
      <trkpt lat="47.153088" lon="8.876147">
        <time>1970-01-01T00:00:00+00:00</time>
        <ele>1051.0</ele>
      </trkpt>
      <trkpt lat="47.153121" lon="8.876044">
        <time>1970-01-01T00:00:00+00:00</time>
        <ele>1052.0</ele>
      </trkpt>
      <trkpt lat="47.153202" lon="8.875986">
        <time>1970-01-01T00:00:00+00:00</time>
        <ele>1054.0</ele>
      </trkpt>
      <trkpt lat="47.153318" lon="8.876002">
        <time>1970-01-01T00:00:00+00:00</time>
        <ele>1055.0</ele>
      </trkpt>
      <trkpt lat="47.153694" lon="8.876352">
        <time>1970-01-01T00:00:00+00:00</time>
        <ele>1056.0</ele>
      </trkpt>
      <trkpt lat="47.153765" lon="8.876346">
        <time>1970-01-01T00:00:00+00:00</time>
        <ele>1057.0</ele>
      </trkpt>
      <trkpt lat="47.153913" lon="8.876248">
        <time>1970-01-01T00:00:00+00:00</time>
        <ele>1059.0</ele>
      </trkpt>
      <trkpt lat="47.154451" lon="8.875397">
        <time>1970-01-01T00:00:00+00:00</time>
        <ele>1058.0</ele>
      </trkpt>
      <trkpt lat="47.154602" lon="8.875275">
        <time>1970-01-01T00:00:00+00:00</time>
        <ele>1061.0</ele>
      </trkpt>
      <trkpt lat="47.155197" lon="8.874928">
        <time>1970-01-01T00:00:00+00:00</time>
        <ele>1065.0</ele>
      </trkpt>
      <trkpt lat="47.155322" lon="8.874821">
        <time>1970-01-01T00:00:00+00:00</time>
        <ele>1065.0</ele>
      </trkpt>
      <trkpt lat="47.155322" lon="8.874821">
        <time>1970-01-01T00:00:00+00:00</time>
        <ele>1065.0</ele>
      </trkpt>
      <trkpt lat="47.155197" lon="8.874928">
        <time>1970-01-01T00:00:00+00:00</time>
        <ele>1065.0</ele>
      </trkpt>
      <trkpt lat="47.154602" lon="8.875275">
        <time>1970-01-01T00:00:00+00:00</time>
        <ele>1061.0</ele>
      </trkpt>
      <trkpt lat="47.154451" lon="8.875397">
        <time>1970-01-01T00:00:00+00:00</time>
        <ele>1058.0</ele>
      </trkpt>
      <trkpt lat="47.153913" lon="8.876248">
        <time>1970-01-01T00:00:00+00:00</time>
        <ele>1059.0</ele>
      </trkpt>
      <trkpt lat="47.153765" lon="8.876346">
        <time>1970-01-01T00:00:00+00:00</time>
        <ele>1057.0</ele>
      </trkpt>
      <trkpt lat="47.153694" lon="8.876352">
        <time>1970-01-01T00:00:00+00:00</time>
        <ele>1056.0</ele>
      </trkpt>
      <trkpt lat="47.153318" lon="8.876002">
        <time>1970-01-01T00:00:00+00:00</time>
        <ele>1055.0</ele>
      </trkpt>
      <trkpt lat="47.153202" lon="8.875986">
        <time>1970-01-01T00:00:00+00:00</time>
        <ele>1054.0</ele>
      </trkpt>
      <trkpt lat="47.153121" lon="8.876044">
        <time>1970-01-01T00:00:00+00:00</time>
        <ele>1052.0</ele>
      </trkpt>
      <trkpt lat="47.153088" lon="8.876147">
        <time>1970-01-01T00:00:00+00:00</time>
        <ele>1051.0</ele>
      </trkpt>
      <trkpt lat="47.153087" lon="8.876255">
        <time>1970-01-01T00:00:00+00:00</time>
        <ele>1050.0</ele>
      </trkpt>
      <trkpt lat="47.153193" lon="8.876388">
        <time>1970-01-01T00:00:00+00:00</time>
        <ele>1048.0</ele>
      </trkpt>
      <trkpt lat="47.153343" lon="8.876522">
        <time>1970-01-01T00:00:00+00:00</time>
        <ele>1047.0</ele>
      </trkpt>
      <trkpt lat="47.153457" lon="8.876803">
        <time>1970-01-01T00:00:00+00:00</time>
        <ele>1044.0</ele>
      </trkpt>
      <trkpt lat="47.153578" lon="8.876975">
        <time>1970-01-01T00:00:00+00:00</time>
        <ele>1043.0</ele>
      </trkpt>
      <trkpt lat="47.153762" lon="8.877107">
        <time>1970-01-01T00:00:00+00:00</time>
        <ele>1039.0</ele>
      </trkpt>
      <trkpt lat="47.153842" lon="8.8771">
        <time>1970-01-01T00:00:00+00:00</time>
        <ele>1037.0</ele>
      </trkpt>
      <trkpt lat="47.15407" lon="8.87703">
        <time>1970-01-01T00:00:00+00:00</time>
        <ele>1033.0</ele>
      </trkpt>
      <trkpt lat="47.154294" lon="8.877049">
        <time>1970-01-01T00:00:00+00:00</time>
        <ele>1028.0</ele>
      </trkpt>
      <trkpt lat="47.154944" lon="8.877444">
        <time>1970-01-01T00:00:00+00:00</time>
        <ele>1017.0</ele>
      </trkpt>
      <trkpt lat="47.155042" lon="8.877475">
        <time>1970-01-01T00:00:00+00:00</time>
        <ele>1016.0</ele>
      </trkpt>
      <trkpt lat="47.155132" lon="8.877415">
        <time>1970-01-01T00:00:00+00:00</time>
        <ele>1017.0</ele>
      </trkpt>
      <trkpt lat="47.155299" lon="8.877246">
        <time>1970-01-01T00:00:00+00:00</time>
        <ele>1021.0</ele>
      </trkpt>
      <trkpt lat="47.155425" lon="8.877178">
        <time>1970-01-01T00:00:00+00:00</time>
        <ele>1021.0</ele>
      </trkpt>
      <trkpt lat="47.155667" lon="8.877146">
        <time>1970-01-01T00:00:00+00:00</time>
        <ele>1015.0</ele>
      </trkpt>
      <trkpt lat="47.155767" lon="8.877142">
        <time>1970-01-01T00:00:00+00:00</time>
        <ele>1012.0</ele>
      </trkpt>
      <trkpt lat="47.155894" lon="8.877059">
        <time>1970-01-01T00:00:00+00:00</time>
        <ele>1009.0</ele>
      </trkpt>
      <trkpt lat="47.156177" lon="8.876756">
        <time>1970-01-01T00:00:00+00:00</time>
        <ele>1002.0</ele>
      </trkpt>
      <trkpt lat="47.156391" lon="8.876695">
        <time>1970-01-01T00:00:00+00:00</time>
        <ele>993.0</ele>
      </trkpt>
      <trkpt lat="47.156525" lon="8.876625">
        <time>1970-01-01T00:00:00+00:00</time>
        <ele>988.0</ele>
      </trkpt>
      <trkpt lat="47.156678" lon="8.876426">
        <time>1970-01-01T00:00:00+00:00</time>
        <ele>990.0</ele>
      </trkpt>
      <trkpt lat="47.156801" lon="8.87618">
        <time>1970-01-01T00:00:00+00:00</time>
        <ele>991.0</ele>
      </trkpt>
      <trkpt lat="47.156945" lon="8.875784">
        <time>1970-01-01T00:00:00+00:00</time>
        <ele>990.0</ele>
      </trkpt>
      <trkpt lat="47.157088" lon="8.875595">
        <time>1970-01-01T00:00:00+00:00</time>
        <ele>985.0</ele>
      </trkpt>
      <trkpt lat="47.157381" lon="8.875426">
        <time>1970-01-01T00:00:00+00:00</time>
        <ele>981.0</ele>
      </trkpt>
      <trkpt lat="47.157564" lon="8.87532">
        <time>1970-01-01T00:00:00+00:00</time>
        <ele>978.0</ele>
      </trkpt>
      <trkpt lat="47.157829" lon="8.8753">
        <time>1970-01-01T00:00:00+00:00</time>
        <ele>974.0</ele>
      </trkpt>
      <trkpt lat="47.157988" lon="8.875208">
        <time>1970-01-01T00:00:00+00:00</time>
        <ele>972.0</ele>
      </trkpt>
      <trkpt lat="47.158098" lon="8.875023">
        <time>1970-01-01T00:00:00+00:00</time>
        <ele>970.0</ele>
      </trkpt>
      <trkpt lat="47.158195" lon="8.874777">
        <time>1970-01-01T00:00:00+00:00</time>
        <ele>967.0</ele>
      </trkpt>
      <trkpt lat="47.158233" lon="8.874588">
        <time>1970-01-01T00:00:00+00:00</time>
        <ele>967.0</ele>
      </trkpt>
      <trkpt lat="47.158183" lon="8.874338">
        <time>1970-01-01T00:00:00+00:00</time>
        <ele>968.0</ele>
      </trkpt>
      <trkpt lat="47.158181" lon="8.874139">
        <time>1970-01-01T00:00:00+00:00</time>
        <ele>968.0</ele>
      </trkpt>
      <trkpt lat="47.15831" lon="8.873804">
        <time>1970-01-01T00:00:00+00:00</time>
        <ele>966.0</ele>
      </trkpt>
      <trkpt lat="47.158331" lon="8.873579">
        <time>1970-01-01T00:00:00+00:00</time>
        <ele>965.0</ele>
      </trkpt>
      <trkpt lat="47.1584" lon="8.873462">
        <time>1970-01-01T00:00:00+00:00</time>
        <ele>963.0</ele>
      </trkpt>
      <trkpt lat="47.158482" lon="8.873437">
        <time>1970-01-01T00:00:00+00:00</time>
        <ele>960.0</ele>
      </trkpt>
      <trkpt lat="47.158561" lon="8.873509">
        <time>1970-01-01T00:00:00+00:00</time>
        <ele>958.0</ele>
      </trkpt>
      <trkpt lat="47.158589" lon="8.873638">
        <time>1970-01-01T00:00:00+00:00</time>
        <ele>959.0</ele>
      </trkpt>
      <trkpt lat="47.158577" lon="8.873909">
        <time>1970-01-01T00:00:00+00:00</time>
        <ele>961.0</ele>
      </trkpt>
      <trkpt lat="47.158584" lon="8.874139">
        <time>1970-01-01T00:00:00+00:00</time>
        <ele>960.0</ele>
      </trkpt>
      <trkpt lat="47.158627" lon="8.874363">
        <time>1970-01-01T00:00:00+00:00</time>
        <ele>957.0</ele>
      </trkpt>
      <trkpt lat="47.15878" lon="8.874915">
        <time>1970-01-01T00:00:00+00:00</time>
        <ele>948.0</ele>
      </trkpt>
      <trkpt lat="47.158953" lon="8.875242">
        <time>1970-01-01T00:00:00+00:00</time>
        <ele>945.0</ele>
      </trkpt>
      <trkpt lat="47.159021" lon="8.875459">
        <time>1970-01-01T00:00:00+00:00</time>
        <ele>943.0</ele>
      </trkpt>
      <trkpt lat="47.159229" lon="8.876403">
        <time>1970-01-01T00:00:00+00:00</time>
        <ele>935.0</ele>
      </trkpt>
      <trkpt lat="47.159256" lon="8.876636">
        <time>1970-01-01T00:00:00+00:00</time>
        <ele>933.0</ele>
      </trkpt>
      <trkpt lat="47.159261" lon="8.877373">
        <time>1970-01-01T00:00:00+00:00</time>
        <ele>927.0</ele>
      </trkpt>
      <trkpt lat="47.159284" lon="8.87758">
        <time>1970-01-01T00:00:00+00:00</time>
        <ele>926.0</ele>
      </trkpt>
      <trkpt lat="47.159309" lon="8.877792">
        <time>1970-01-01T00:00:00+00:00</time>
        <ele>926.0</ele>
      </trkpt>
      <trkpt lat="47.159319" lon="8.878115">
        <time>1970-01-01T00:00:00+00:00</time>
        <ele>924.0</ele>
      </trkpt>
      <trkpt lat="47.159278" lon="8.878435">
        <time>1970-01-01T00:00:00+00:00</time>
        <ele>919.0</ele>
      </trkpt>
      <trkpt lat="47.159183" lon="8.878674">
        <time>1970-01-01T00:00:00+00:00</time>
        <ele>916.0</ele>
      </trkpt>
      <trkpt lat="47.159109" lon="8.878762">
        <time>1970-01-01T00:00:00+00:00</time>
        <ele>915.0</ele>
      </trkpt>
      <trkpt lat="47.159094" lon="8.878944">
        <time>1970-01-01T00:00:00+00:00</time>
        <ele>913.0</ele>
      </trkpt>
      <trkpt lat="47.159096" lon="8.879018">
        <time>1970-01-01T00:00:00+00:00</time>
        <ele>912.0</ele>
      </trkpt>
      <trkpt lat="47.159113" lon="8.879068">
        <time>1970-01-01T00:00:00+00:00</time>
        <ele>911.0</ele>
      </trkpt>
      <trkpt lat="47.159146" lon="8.87908">
        <time>1970-01-01T00:00:00+00:00</time>
        <ele>911.0</ele>
      </trkpt>
      <trkpt lat="47.159234" lon="8.879043">
        <time>1970-01-01T00:00:00+00:00</time>
        <ele>910.0</ele>
      </trkpt>
      <trkpt lat="47.159332" lon="8.878968">
        <time>1970-01-01T00:00:00+00:00</time>
        <ele>911.0</ele>
      </trkpt>
      <trkpt lat="47.159375" lon="8.878972">
        <time>1970-01-01T00:00:00+00:00</time>
        <ele>910.0</ele>
      </trkpt>
      <trkpt lat="47.159394" lon="8.879001">
        <time>1970-01-01T00:00:00+00:00</time>
        <ele>909.0</ele>
      </trkpt>
      <trkpt lat="47.159396" lon="8.879068">
        <time>1970-01-01T00:00:00+00:00</time>
        <ele>908.0</ele>
      </trkpt>
      <trkpt lat="47.159319" lon="8.879398">
        <time>1970-01-01T00:00:00+00:00</time>
        <ele>902.0</ele>
      </trkpt>
      <trkpt lat="47.15932" lon="8.879512">
        <time>1970-01-01T00:00:00+00:00</time>
        <ele>900.0</ele>
      </trkpt>
      <trkpt lat="47.159363" lon="8.879528">
        <time>1970-01-01T00:00:00+00:00</time>
        <ele>898.0</ele>
      </trkpt>
      <trkpt lat="47.159478" lon="8.879482">
        <time>1970-01-01T00:00:00+00:00</time>
        <ele>895.0</ele>
      </trkpt>
      <trkpt lat="47.159661" lon="8.879291">
        <time>1970-01-01T00:00:00+00:00</time>
        <ele>892.0</ele>
      </trkpt>
      <trkpt lat="47.159744" lon="8.879411">
        <time>1970-01-01T00:00:00+00:00</time>
        <ele>886.0</ele>
      </trkpt>
      <trkpt lat="47.159761" lon="8.879714">
        <time>1970-01-01T00:00:00+00:00</time>
        <ele>881.0</ele>
      </trkpt>
      <trkpt lat="47.160096" lon="8.879528">
        <time>1970-01-01T00:00:00+00:00</time>
        <ele>874.0</ele>
      </trkpt>
      <trkpt lat="47.160194" lon="8.879376">
        <time>1970-01-01T00:00:00+00:00</time>
        <ele>872.0</ele>
      </trkpt>
      <trkpt lat="47.160316" lon="8.879531">
        <time>1970-01-01T00:00:00+00:00</time>
        <ele>867.0</ele>
      </trkpt>
      <trkpt lat="47.160418" lon="8.879725">
        <time>1970-01-01T00:00:00+00:00</time>
        <ele>864.0</ele>
      </trkpt>
      <trkpt lat="47.160578" lon="8.879959">
        <time>1970-01-01T00:00:00+00:00</time>
        <ele>864.0</ele>
      </trkpt>
      <trkpt lat="47.160656" lon="8.880006">
        <time>1970-01-01T00:00:00+00:00</time>
        <ele>865.0</ele>
      </trkpt>
      <trkpt lat="47.160704" lon="8.880081">
        <time>1970-01-01T00:00:00+00:00</time>
        <ele>866.0</ele>
      </trkpt>
      <trkpt lat="47.160722" lon="8.880249">
        <time>1970-01-01T00:00:00+00:00</time>
        <ele>868.0</ele>
      </trkpt>
      <trkpt lat="47.160697" lon="8.8804">
        <time>1970-01-01T00:00:00+00:00</time>
        <ele>868.0</ele>
      </trkpt>
      <trkpt lat="47.160737" lon="8.880873">
        <time>1970-01-01T00:00:00+00:00</time>
        <ele>870.0</ele>
      </trkpt>
      <trkpt lat="47.160752" lon="8.881391">
        <time>1970-01-01T00:00:00+00:00</time>
        <ele>867.0</ele>
      </trkpt>
      <trkpt lat="47.16071" lon="8.881808">
        <time>1970-01-01T00:00:00+00:00</time>
        <ele>859.0</ele>
      </trkpt>
      <trkpt lat="47.160705" lon="8.882259">
        <time>1970-01-01T00:00:00+00:00</time>
        <ele>850.0</ele>
      </trkpt>
      <trkpt lat="47.160644" lon="8.88248">
        <time>1970-01-01T00:00:00+00:00</time>
        <ele>849.0</ele>
      </trkpt>
      <trkpt lat="47.160469" lon="8.882826">
        <time>1970-01-01T00:00:00+00:00</time>
        <ele>853.0</ele>
      </trkpt>
      <trkpt lat="47.160429" lon="8.883065">
        <time>1970-01-01T00:00:00+00:00</time>
        <ele>849.0</ele>
      </trkpt>
      <trkpt lat="47.160326" lon="8.883396">
        <time>1970-01-01T00:00:00+00:00</time>
        <ele>846.0</ele>
      </trkpt>
      <trkpt lat="47.160306" lon="8.883739">
        <time>1970-01-01T00:00:00+00:00</time>
        <ele>838.0</ele>
      </trkpt>
      <trkpt lat="47.16024" lon="8.884202">
        <time>1970-01-01T00:00:00+00:00</time>
        <ele>829.0</ele>
      </trkpt>
      <trkpt lat="47.160185" lon="8.884358">
        <time>1970-01-01T00:00:00+00:00</time>
        <ele>822.0</ele>
      </trkpt>
      <trkpt lat="47.160064" lon="8.884553">
        <time>1970-01-01T00:00:00+00:00</time>
        <ele>816.0</ele>
      </trkpt>
      <trkpt lat="47.159814" lon="8.885035">
        <time>1970-01-01T00:00:00+00:00</time>
        <ele>798.0</ele>
      </trkpt>
      <trkpt lat="47.159705" lon="8.885155">
        <time>1970-01-01T00:00:00+00:00</time>
        <ele>791.0</ele>
      </trkpt>
      <trkpt lat="47.159548" lon="8.885226">
        <time>1970-01-01T00:00:00+00:00</time>
        <ele>786.0</ele>
      </trkpt>
      <trkpt lat="47.15945" lon="8.885216">
        <time>1970-01-01T00:00:00+00:00</time>
        <ele>786.0</ele>
      </trkpt>
      <trkpt lat="47.159154" lon="8.885075">
        <time>1970-01-01T00:00:00+00:00</time>
        <ele>793.0</ele>
      </trkpt>
      <trkpt lat="47.15909" lon="8.884926">
        <time>1970-01-01T00:00:00+00:00</time>
        <ele>797.0</ele>
      </trkpt>
      <trkpt lat="47.158954" lon="8.884803">
        <time>1970-01-01T00:00:00+00:00</time>
        <ele>799.0</ele>
      </trkpt>
      <trkpt lat="47.158799" lon="8.884782">
        <time>1970-01-01T00:00:00+00:00</time>
        <ele>801.0</ele>
      </trkpt>
      <trkpt lat="47.158647" lon="8.884985">
        <time>1970-01-01T00:00:00+00:00</time>
        <ele>798.0</ele>
      </trkpt>
      <trkpt lat="47.158599" lon="8.885279">
        <time>1970-01-01T00:00:00+00:00</time>
        <ele>789.0</ele>
      </trkpt>
      <trkpt lat="47.15849" lon="8.885489">
        <time>1970-01-01T00:00:00+00:00</time>
        <ele>783.0</ele>
      </trkpt>
      <trkpt lat="47.158486" lon="8.885693">
        <time>1970-01-01T00:00:00+00:00</time>
        <ele>778.0</ele>
      </trkpt>
      <trkpt lat="47.158525" lon="8.885832">
        <time>1970-01-01T00:00:00+00:00</time>
        <ele>773.0</ele>
      </trkpt>
      <trkpt lat="47.158587" lon="8.885883">
        <time>1970-01-01T00:00:00+00:00</time>
        <ele>771.0</ele>
      </trkpt>
      <trkpt lat="47.15878" lon="8.885874">
        <time>1970-01-01T00:00:00+00:00</time>
        <ele>771.0</ele>
      </trkpt>
      <trkpt lat="47.158856" lon="8.885905">
        <time>1970-01-01T00:00:00+00:00</time>
        <ele>771.0</ele>
      </trkpt>
      <trkpt lat="47.158889" lon="8.885973">
        <time>1970-01-01T00:00:00+00:00</time>
        <ele>769.0</ele>
      </trkpt>
      <trkpt lat="47.158879" lon="8.886067">
        <time>1970-01-01T00:00:00+00:00</time>
        <ele>766.0</ele>
      </trkpt>
      <trkpt lat="47.1588" lon="8.886317">
        <time>1970-01-01T00:00:00+00:00</time>
        <ele>758.0</ele>
      </trkpt>
      <trkpt lat="47.158826" lon="8.886458">
        <time>1970-01-01T00:00:00+00:00</time>
        <ele>756.0</ele>
      </trkpt>
      <trkpt lat="47.159017" lon="8.886414">
        <time>1970-01-01T00:00:00+00:00</time>
        <ele>758.0</ele>
      </trkpt>
      <trkpt lat="47.159211" lon="8.886498">
        <time>1970-01-01T00:00:00+00:00</time>
        <ele>750.0</ele>
      </trkpt>
      <trkpt lat="47.159705" lon="8.887229">
        <time>1970-01-01T00:00:00+00:00</time>
        <ele>730.0</ele>
      </trkpt>
      <trkpt lat="47.159822" lon="8.887303">
        <time>1970-01-01T00:00:00+00:00</time>
        <ele>730.0</ele>
      </trkpt>
      <trkpt lat="47.159931" lon="8.887316">
        <time>1970-01-01T00:00:00+00:00</time>
        <ele>730.0</ele>
      </trkpt>
      <trkpt lat="47.160372" lon="8.887233">
        <time>1970-01-01T00:00:00+00:00</time>
        <ele>725.0</ele>
      </trkpt>
      <trkpt lat="47.160438" lon="8.887263">
        <time>1970-01-01T00:00:00+00:00</time>
        <ele>724.0</ele>
      </trkpt>
      <trkpt lat="47.160847" lon="8.886934">
        <time>1970-01-01T00:00:00+00:00</time>
        <ele>720.0</ele>
      </trkpt>
      <trkpt lat="47.160929" lon="8.886868">
        <time>1970-01-01T00:00:00+00:00</time>
        <ele>719.0</ele>
      </trkpt>
      <trkpt lat="47.161645" lon="8.886472">
        <time>1970-01-01T00:00:00+00:00</time>
        <ele>717.0</ele>
      </trkpt>
      <trkpt lat="47.163287" lon="8.885028">
        <time>1970-01-01T00:00:00+00:00</time>
        <ele>681.0</ele>
      </trkpt>
      <trkpt lat="47.163509" lon="8.884937">
        <time>1970-01-01T00:00:00+00:00</time>
        <ele>678.0</ele>
      </trkpt>
      <trkpt lat="47.164217" lon="8.884656">
        <time>1970-01-01T00:00:00+00:00</time>
        <ele>679.0</ele>
      </trkpt>
      <trkpt lat="47.164645" lon="8.88423">
        <time>1970-01-01T00:00:00+00:00</time>
        <ele>670.0</ele>
      </trkpt>
      <trkpt lat="47.164768" lon="8.884422">
        <time>1970-01-01T00:00:00+00:00</time>
        <ele>665.0</ele>
      </trkpt>
      <trkpt lat="47.164762" lon="8.884482">
        <time>1970-01-01T00:00:00+00:00</time>
        <ele>664.0</ele>
      </trkpt>
      <trkpt lat="47.164784" lon="8.884528">
        <time>1970-01-01T00:00:00+00:00</time>
        <ele>663.0</ele>
      </trkpt>
      <trkpt lat="47.164834" lon="8.884579">
        <time>1970-01-01T00:00:00+00:00</time>
        <ele>661.0</ele>
      </trkpt>
      <trkpt lat="47.164905" lon="8.8846">
        <time>1970-01-01T00:00:00+00:00</time>
        <ele>660.0</ele>
      </trkpt>
      <trkpt lat="47.164941" lon="8.884585">
        <time>1970-01-01T00:00:00+00:00</time>
        <ele>659.0</ele>
      </trkpt>
      <trkpt lat="47.164962" lon="8.884549">
        <time>1970-01-01T00:00:00+00:00</time>
        <ele>660.0</ele>
      </trkpt>
      <trkpt lat="47.164969" lon="8.884452">
        <time>1970-01-01T00:00:00+00:00</time>
        <ele>662.0</ele>
      </trkpt>
      <trkpt lat="47.165006" lon="8.884406">
        <time>1970-01-01T00:00:00+00:00</time>
        <ele>662.0</ele>
      </trkpt>
      <trkpt lat="47.165073" lon="8.884472">
        <time>1970-01-01T00:00:00+00:00</time>
        <ele>661.0</ele>
      </trkpt>
      <trkpt lat="47.165286" lon="8.884551">
        <time>1970-01-01T00:00:00+00:00</time>
        <ele>660.0</ele>
      </trkpt>
      <trkpt lat="47.165464" lon="8.884573">
        <time>1970-01-01T00:00:00+00:00</time>
        <ele>660.0</ele>
      </trkpt>
      <trkpt lat="47.165545" lon="8.884528">
        <time>1970-01-01T00:00:00+00:00</time>
        <ele>659.0</ele>
      </trkpt>
      <trkpt lat="47.165581" lon="8.884528">
        <time>1970-01-01T00:00:00+00:00</time>
        <ele>659.0</ele>
      </trkpt>
      <trkpt lat="47.165656" lon="8.884566">
        <time>1970-01-01T00:00:00+00:00</time>
        <ele>658.0</ele>
      </trkpt>
      <trkpt lat="47.165685" lon="8.884622">
        <time>1970-01-01T00:00:00+00:00</time>
        <ele>658.0</ele>
      </trkpt>
      <trkpt lat="47.165728" lon="8.884807">
        <time>1970-01-01T00:00:00+00:00</time>
        <ele>656.0</ele>
      </trkpt>
      <trkpt lat="47.165736" lon="8.884942">
        <time>1970-01-01T00:00:00+00:00</time>
        <ele>654.0</ele>
      </trkpt>
      <trkpt lat="47.16582" lon="8.885058">
        <time>1970-01-01T00:00:00+00:00</time>
        <ele>650.0</ele>
      </trkpt>
      <trkpt lat="47.16591" lon="8.885148">
        <time>1970-01-01T00:00:00+00:00</time>
        <ele>647.0</ele>
      </trkpt>
      <trkpt lat="47.165923" lon="8.885417">
        <time>1970-01-01T00:00:00+00:00</time>
        <ele>644.0</ele>
      </trkpt>
      <trkpt lat="47.165933" lon="8.885469">
        <time>1970-01-01T00:00:00+00:00</time>
        <ele>643.0</ele>
      </trkpt>
      <trkpt lat="47.165971" lon="8.88552">
        <time>1970-01-01T00:00:00+00:00</time>
        <ele>641.0</ele>
      </trkpt>
      <trkpt lat="47.165981" lon="8.885584">
        <time>1970-01-01T00:00:00+00:00</time>
        <ele>640.0</ele>
      </trkpt>
      <trkpt lat="47.16597" lon="8.885682">
        <time>1970-01-01T00:00:00+00:00</time>
        <ele>639.0</ele>
      </trkpt>
      <trkpt lat="47.166017" lon="8.885798">
        <time>1970-01-01T00:00:00+00:00</time>
        <ele>637.0</ele>
      </trkpt>
      <trkpt lat="47.166094" lon="8.885889">
        <time>1970-01-01T00:00:00+00:00</time>
        <ele>634.0</ele>
      </trkpt>
      <trkpt lat="47.166265" lon="8.885958">
        <time>1970-01-01T00:00:00+00:00</time>
        <ele>629.0</ele>
      </trkpt>
      <trkpt lat="47.166814" lon="8.886297">
        <time>1970-01-01T00:00:00+00:00</time>
        <ele>617.0</ele>
      </trkpt>
      <trkpt lat="47.166949" lon="8.886326">
        <time>1970-01-01T00:00:00+00:00</time>
        <ele>613.0</ele>
      </trkpt>
      <trkpt lat="47.167126" lon="8.886436">
        <time>1970-01-01T00:00:00+00:00</time>
        <ele>610.0</ele>
      </trkpt>
      <trkpt lat="47.167321" lon="8.886772">
        <time>1970-01-01T00:00:00+00:00</time>
        <ele>606.0</ele>
      </trkpt>
      <trkpt lat="47.167488" lon="8.887043">
        <time>1970-01-01T00:00:00+00:00</time>
        <ele>605.0</ele>
      </trkpt>
      <trkpt lat="47.167668" lon="8.887228">
        <time>1970-01-01T00:00:00+00:00</time>
        <ele>599.0</ele>
      </trkpt>
      <trkpt lat="47.167915" lon="8.88721">
        <time>1970-01-01T00:00:00+00:00</time>
        <ele>594.0</ele>
      </trkpt>
      <trkpt lat="47.168071" lon="8.887333">
        <time>1970-01-01T00:00:00+00:00</time>
        <ele>589.0</ele>
      </trkpt>
      <trkpt lat="47.168237" lon="8.887584">
        <time>1970-01-01T00:00:00+00:00</time>
        <ele>585.0</ele>
      </trkpt>
      <trkpt lat="47.168408" lon="8.887902">
        <time>1970-01-01T00:00:00+00:00</time>
        <ele>580.0</ele>
      </trkpt>
      <trkpt lat="47.168377" lon="8.888024">
        <time>1970-01-01T00:00:00+00:00</time>
        <ele>579.0</ele>
      </trkpt>
      <trkpt lat="47.168416" lon="8.888219">
        <time>1970-01-01T00:00:00+00:00</time>
        <ele>578.0</ele>
      </trkpt>
      <trkpt lat="47.168541" lon="8.888612">
        <time>1970-01-01T00:00:00+00:00</time>
        <ele>575.0</ele>
      </trkpt>
      <trkpt lat="47.168575" lon="8.888645">
        <time>1970-01-01T00:00:00+00:00</time>
        <ele>574.0</ele>
      </trkpt>
      <trkpt lat="47.168631" lon="8.888787">
        <time>1970-01-01T00:00:00+00:00</time>
        <ele>572.0</ele>
      </trkpt>
      <trkpt lat="47.16898" lon="8.888792">
        <time>1970-01-01T00:00:00+00:00</time>
        <ele>566.0</ele>
      </trkpt>
      <trkpt lat="47.16908" lon="8.888881">
        <time>1970-01-01T00:00:00+00:00</time>
        <ele>564.0</ele>
      </trkpt>
      <trkpt lat="47.169183" lon="8.888814">
        <time>1970-01-01T00:00:00+00:00</time>
        <ele>565.0</ele>
      </trkpt>
      <trkpt lat="47.169246" lon="8.888879">
        <time>1970-01-01T00:00:00+00:00</time>
        <ele>563.0</ele>
      </trkpt>
      <trkpt lat="47.169379" lon="8.889172">
        <time>1970-01-01T00:00:00+00:00</time>
        <ele>557.0</ele>
      </trkpt>
      <trkpt lat="47.16963" lon="8.889377">
        <time>1970-01-01T00:00:00+00:00</time>
        <ele>543.0</ele>
      </trkpt>
      <trkpt lat="47.169664" lon="8.889459">
        <time>1970-01-01T00:00:00+00:00</time>
        <ele>540.0</ele>
      </trkpt>
      <trkpt lat="47.169847" lon="8.888683">
        <time>1970-01-01T00:00:00+00:00</time>
        <ele>540.0</ele>
      </trkpt>
      <trkpt lat="47.17004" lon="8.888816">
        <time>1970-01-01T00:00:00+00:00</time>
        <ele>529.0</ele>
      </trkpt>
      <trkpt lat="47.170008" lon="8.889149">
        <time>1970-01-01T00:00:00+00:00</time>
        <ele>527.0</ele>
      </trkpt>
      <trkpt lat="47.170165" lon="8.890134">
        <time>1970-01-01T00:00:00+00:00</time>
        <ele>510.0</ele>
      </trkpt>
      <trkpt lat="47.170199" lon="8.89022">
        <time>1970-01-01T00:00:00+00:00</time>
        <ele>508.0</ele>
      </trkpt>
      <trkpt lat="47.170148" lon="8.890286">
        <time>1970-01-01T00:00:00+00:00</time>
        <ele>510.0</ele>
      </trkpt>
      <trkpt lat="47.17031" lon="8.890906">
        <time>1970-01-01T00:00:00+00:00</time>
        <ele>503.0</ele>
      </trkpt>
      <trkpt lat="47.170346" lon="8.8911">
        <time>1970-01-01T00:00:00+00:00</time>
        <ele>503.0</ele>
      </trkpt>
      <trkpt lat="47.170338" lon="8.891181">
        <time>1970-01-01T00:00:00+00:00</time>
        <ele>504.0</ele>
      </trkpt>
      <trkpt lat="47.170445" lon="8.891057">
        <time>1970-01-01T00:00:00+00:00</time>
        <ele>499.0</ele>
      </trkpt>
      <trkpt lat="47.17053" lon="8.891045">
        <time>1970-01-01T00:00:00+00:00</time>
        <ele>495.0</ele>
      </trkpt>
      <trkpt lat="47.17061" lon="8.891096">
        <time>1970-01-01T00:00:00+00:00</time>
        <ele>491.0</ele>
      </trkpt>
      <trkpt lat="47.170667" lon="8.891257">
        <time>1970-01-01T00:00:00+00:00</time>
        <ele>487.0</ele>
      </trkpt>
      <trkpt lat="47.170639" lon="8.891403">
        <time>1970-01-01T00:00:00+00:00</time>
        <ele>488.0</ele>
      </trkpt>
      <trkpt lat="47.170613" lon="8.891664">
        <time>1970-01-01T00:00:00+00:00</time>
        <ele>489.0</ele>
      </trkpt>
      <trkpt lat="47.170829" lon="8.8923">
        <time>1970-01-01T00:00:00+00:00</time>
        <ele>478.0</ele>
      </trkpt>
      <trkpt lat="47.170912" lon="8.892632">
        <time>1970-01-01T00:00:00+00:00</time>
        <ele>476.0</ele>
      </trkpt>
      <trkpt lat="47.170933" lon="8.89272">
        <time>1970-01-01T00:00:00+00:00</time>
        <ele>475.0</ele>
      </trkpt>
      <trkpt lat="47.171003" lon="8.892883">
        <time>1970-01-01T00:00:00+00:00</time>
        <ele>473.0</ele>
      </trkpt>
      <trkpt lat="47.171048" lon="8.892921">
        <time>1970-01-01T00:00:00+00:00</time>
        <ele>471.0</ele>
      </trkpt>
      <trkpt lat="47.171133" lon="8.892992">
        <time>1970-01-01T00:00:00+00:00</time>
        <ele>467.0</ele>
      </trkpt>
      <trkpt lat="47.171437" lon="8.893122">
        <time>1970-01-01T00:00:00+00:00</time>
        <ele>461.0</ele>
      </trkpt>
      <trkpt lat="47.171543" lon="8.893193">
        <time>1970-01-01T00:00:00+00:00</time>
        <ele>461.0</ele>
      </trkpt>
      <trkpt lat="47.171674" lon="8.893695">
        <time>1970-01-01T00:00:00+00:00</time>
        <ele>457.0</ele>
      </trkpt>
      <trkpt lat="47.171822" lon="8.894767">
        <time>1970-01-01T00:00:00+00:00</time>
        <ele>453.0</ele>
      </trkpt>
      <trkpt lat="47.171928" lon="8.894944">
        <time>1970-01-01T00:00:00+00:00</time>
        <ele>453.0</ele>
      </trkpt>
      <trkpt lat="47.172648" lon="8.895316">
        <time>1970-01-01T00:00:00+00:00</time>
        <ele>450.0</ele>
      </trkpt>
      <trkpt lat="47.172946" lon="8.895536">
        <time>1970-01-01T00:00:00+00:00</time>
        <ele>451.0</ele>
      </trkpt>
      <trkpt lat="47.173041" lon="8.895597">
        <time>1970-01-01T00:00:00+00:00</time>
        <ele>451.0</ele>
      </trkpt>
      <trkpt lat="47.172899" lon="8.895915">
        <time>1970-01-01T00:00:00+00:00</time>
        <ele>451.0</ele>
      </trkpt>
      <trkpt lat="47.172689" lon="8.896185">
        <time>1970-01-01T00:00:00+00:00</time>
        <ele>451.0</ele>
      </trkpt>
      <trkpt lat="47.172658" lon="8.896225">
        <time>1970-01-01T00:00:00+00:00</time>
        <ele>451.0</ele>
      </trkpt>
      <trkpt lat="47.172583" lon="8.89632">
        <time>1970-01-01T00:00:00+00:00</time>
        <ele>451.0</ele>
      </trkpt>
      <trkpt lat="47.172425" lon="8.896196">
        <time>1970-01-01T00:00:00+00:00</time>
        <ele>451.0</ele>
      </trkpt>
    </trkseg>
  </trk>
</gpx>
